Regional Weather Roundup
Issued by NWS Pendleton, OR

Home | Current Version | Previous Version | Text Only | Print | Product List | Glossary On
Versions: 1 2 3 4 5 6 7 8 9 10 11 12 13 14 15 16 17 18 19 20 21 22 23 24 25 26 27 28 29 30 31 32 33 34 35 36 37 38 39 40 41 42 43 44 45 46 47 48 49 50
000
ASUS46 KPDT 310110
RWRPDT
PENDLETON REGIONAL WEATHER ROUNDUP
NATIONAL WEATHER SERVICE PENDLETON OREGON
600 PM PDT MON MAR 30 2015

NOTE: FAIR INDICATES FEW OR NO CLOUDS BELOW 12,000 FEET WITH NO
SIGNIFICANT WEATHER AND/OR OBSTRUCTIONS TO VISIBILITY.

# INDICATES UNOFFICIAL STATION AND DATA

WAZ520-310210-
EAST SLOPES OF WASHINGTON CASCADES

CITY            SKY/WX      TMP DP  RH  WIND    PRES   REMARKS
#BUMPING DAM    N/A         57  N/A N/A S6      N/A
#CLE ELUM HS    N/A         62  44  52  SE2     29.83F
#CLE ELUM LAKE  N/A         62  45  54  S2      29.82F
#CLIFFDEL 2NW   N/A         63  41  44  CALM    N/A
#EASTON DOT     N/A         63  27  25  CALM    N/A
#GLENWOOD       N/A         67  36  32  SW1     29.88F
#MANASTASH CYN  N/A         59  41  51  N1      29.86F
#NELSON         N/A         61  49  65  CALM    29.86F
#NELSON 3SW     N/A         50  46  86  CALM    30.06F
#NILE           N/A         64  44  48  S1      29.12F
#PEOH POINT     N/A         55  41  59  NE2     N/A
#SNOWDEN        N/A         61  26  26  NW1     N/A
#TEANAWAY 4NE   N/A         62  47  58  S1      N/A
#TROUT LAKE 1NE N/A         65  34  31  SW7     29.89F
$$

WAZ521-310210-
SIMCOE HIGHLANDS

CITY            SKY/WX      TMP DP  RH  WIND    PRES   REMARKS
#SATUS PASS DOT N/A         57  31  37  NW1     N/A
#CENTERVILLE 4W N/A         66  47  50  CALM    29.65F
#CENTERVILLE 1SWN/A         63  42  46  CALM    29.86F
#GOLDENDALE     N/A         63  41  44  W5      N/A
#GOLDENDALE 1NE N/A         63  30  29  CALM    N/A
#GOLDENDALE 5WNWN/A         62  43  50  SW3     29.89F
#GOODNOE HILLS  N/A         66  44  45  W3      N/A
#LYLE 6NE       N/A         64  46  52  SW5     29.86F
$$

WAZ026-310210-
KITTITAS VALLEY

CITY            SKY/WX      TMP DP  RH  WIND    PRES   REMARKS
ELLENSBURG AP   CLOUDY      68  39  35  SE6     29.86F
#ELLENSBURG CWU N/A         65  40  40  E2      29.80F
#ELLENSBURG 3NE N/A         64  44  48  S2      29.87F
#ELLENSBURG 1E  N/A         64  39  40  CALM    N/A
#KITTITAS 4N    N/A         65  44  46  CALM    28.19F
#KITTITAS 3S    N/A         65  43  45  CALM    29.84F
#THORP 6N       N/A         60  43  53  E7      29.88F
$$

WAZ027-310210-
YAKIMA VALLEY

CITY            SKY/WX      TMP DP  RH  WIND    PRES   REMARKS
SUNNYSIDE AP    CLOUDY      65  42  43  E9      29.86F
YAKIMA AIRPORT  CLOUDY      70  39  32  CALM    29.86F
YAKIMA-VAGABOND CLOUDY      66  38  36  SW5     29.86F
#DONALD 2NE     N/A         71  22  16  N1      28.70F
#GRANDVIEW      N/A         67  40  37  E3      29.86F
#MABTON         N/A         71  38  30  S7      29.85F
#MOXEE 2E       N/A         65  26  23  E9      29.77F
#NACHES 2SW     N/A         64  45  50  SE2     29.91S
#TERRACE HTS    N/A         68  40  36  CALM    29.82F
#TOPPENISH      N/A         68  43  40  E6      29.76F
#WAPATO 4NE     N/A         71  22  16  N1      28.70F
#WEST VALLEY    N/A         66  41  40  CALM    29.84F
#W YAKIMA       N/A         66  43  43  CALM    29.85F
#WHITE SWAN 5E  N/A         68  49  51  NE1     29.84F
#WILEY CITY 3W  N/A         65  33  30  CALM    29.88F
$$

WAZ028-310210-
LOWER COLUMBIA BASIN...WASHINGTON

CITY            SKY/WX      TMP DP  RH  WIND    PRES   REMARKS
PASCO           CLOUDY      70  38  31  SE6     29.87F
PROSSER AWOS    N/A         68  41  37  SE5     29.88F
RICHLAND AWOS   CLOUDY      70  39  32  CALM    29.86F
#BASIN CITY 5SW N/A         65  48  54  SE1     29.87F
#BENTON CITY    N/A         67  39  36  SW6     29.77F
#CONNELL 5N     N/A         64  44  48  CALM    29.88F
#CONNELL 5NW    N/A         64  45  50  CALM    29.84F
#ELTOPIA        N/A         68  48  49  CALM    29.83F
#ELTOPIA 6NW    N/A         64  45  50  E5      28.85F
#KAHLOTUS       N/A         66  41  40  W1      29.88F
#KENNEWICK 3S   N/A         68  41  37  CALM    29.87F
#PASCO-BROADMOORN/A         71  39  31  E1      29.75F
#PATERSON       N/A         67  43  42  CALM    29.85F
#PROSSER DOT    N/A         69  38  32  S8      N/A
#PROSSER        N/A         67  38  34  S9      29.84F
#SAGEMOOR 2W    N/A         64  48  56  CALM    29.72F
#TOUCHET 2S     N/A         67  55  65  CALM    29.85F
#WEST PASCO     N/A         70  44  39  E1      29.86F
$$

WAZ029-310210-
FOOTHILLS OF THE BLUES...WASHINGTON

CITY            SKY/WX      TMP DP  RH  WIND    PRES   REMARKS
WALLA WALLA AP  CLOUDY      69  39  33  CALM    29.89F
#DAYTON SCHOOL  N/A         67  36  32  N2      29.92F
#DELANEY DOT    N/A         69  44  40  N2      N/A
#LOWDEN 2SE     N/A         69  47  45  CALM    29.84F
#PLEASANT VIEW 1N/A         65  40  40  CALM    29.92F
#PRESCOTT       N/A         68  54  61  CALM    29.87F
#SUDBURY        N/A         69  N/A N/A CALM    N/A
#WHITMAN COLLEGEN/A         68  43  40  N2      29.91F
#WAITSBURG 5S   N/A         64  48  56  CALM    29.96F
#WAITSBURG 8N   N/A         67  21  17  CALM    29.76S
#WALLA WALLA 5E N/A         66  46  48  VRB1    N/A
#WALLA WALLA U  N/A         70  43  38  CALM    29.86F
#WHITMAN MISSIONN/A         70  45  41  CALM    29.88F
$$

WAZ030-310210-
BLUE MOUNTAINS...WASHINGTON

CITY            SKY/WX      TMP DP  RH  WIND    PRES   REMARKS
#DIXIE 5SE      N/A         59  37  44  CALM    29.87F
$$

ORZ009-041-WAZ024-310210-
COLUMBIA RIVER GORGE

CITY            SKY/WX      TMP DP  RH  WIND    PRES   REMARKS
HOOD RIVER AP   CLOUDY      66  41  40  NW6     29.88F
THE DALLES AP   CLOUDY      72  41  33  N5      29.85F
#ARLINGTON AIRPON/A         66  43  43  CALM    N/A
#CELILO DOT     N/A         67  40  37  SW2     N/A
#LYLE           N/A         70  44  39  NW1     29.86F
#MARYHILL       N/A         66  47  50  CALM    N/A
#MOSIER 1S      N/A         66  31  27  W8      29.85F
#MURDOCK        N/A         71  44  38  W2      29.87F
#RUFUS DOT      N/A         66  41  40  NW3     N/A

$$

ORZ510-310210-
NORTH CENTRAL OREGON

CITY            SKY/WX      TMP DP  RH  WIND    PRES   REMARKS
#CHENOWITH 1W   N/A         64  39  40  W9      N/A
#COW CYN RST AREN/A         67  27  22  S2      N/A
#DUFUR 9E       N/A         60  44  55  N2      29.92F
#GRASS VALLEY 1SN/A         62  44  52  N6      29.90F
#KENT DOT       N/A         65  33  30  NE6     N/A
#MAUPIN SCHOOL  N/A         71  39  31  N1      29.87F
#MORO SCHOOL    N/A         63  47  56  N5      29.91F
#SHANIKO 5WSW   N/A         65  25  22  SW3     N/A
#SHANIKO 4NW    N/A         63  27  25  NW3     29.93F
#TYGH VALLEY 2NEN/A         69  46  44  N9      29.85F
#WAPANITIA AIRPON/A         67  42  40  NE6     29.89F
#WASCO DOT      N/A         67  36  32  NW3     N/A
#WASCO 5NE      N/A         64  44  48  CALM    29.88F
$$

ORZ511-310210-
CENTRAL OREGON

CITY            SKY/WX      TMP DP  RH  WIND    PRES   REMARKS
BEND AIRPORT    CLOUDY      66  27  23  CALM    29.91F
MADRAS AIRPORT  CLOUDY      66  39  37  N5      29.91F
PRINEVILLE AP   CLOUDY      66  32  28  NW6     29.91F
REDMOND AIRPORT CLOUDY      68  31  25  N8      29.90F
#BEND 6E        N/A         66  25  21  CALM    29.82R
#BEND 1SW       N/A         65  26  23  E3      N/A
#BEND-AWBREY    N/A         67  27  22  S6      29.86F
#BEND-KIM LN    N/A         67  32  27  CALM    29.89F
#CULVER         N/A         68  35  29  N1      29.85F
#LAKE BILLY CHINN/A         67   4   8  E3      29.96F
#MADRAS         N/A         67  39  36  NE3     N/A
#POWELL BUTTE 3EN/A         66  38  36  NW7     N/A
#POWELL BUTTE   N/A         66  39  37  N2      29.55F
#PRINEVILLE 3N  N/A         67  39  36  W6      29.83F
#WARM SPRINGS   N/A         70  40  34  N1      29.85F

$$


ORZ509-310210-
EAST SLOPES OF OREGON CASCADES

CITY            SKY/WX      TMP DP  RH  WIND    PRES   REMARKS
#BLUE BOX PASS  N/A         59   5  11  CALM    N/A
#CAMP SHERMAN   N/A         66  32  28  CALM    29.91F
#LA PINE 4NW    N/A         64  32  30  SW3     29.97F
#LAVA BUTTE DOT N/A         64  21  19  CALM    N/A
#SISTERS AIRPOR N/A         68  39  35  N7      30.17S
#SISTERS ODOT   N/A         69  N/A N/A E2      N/A
#SISTERS 3N     N/A         66  33  29  W2      29.95S
#SUNRIVER       N/A         64  24  22  SW7     29.81F
#TUMALO 3W      N/A         69  25  19  SW7     29.74F
#WANOGA BUTTE D N/A         55  18  23  W9      N/A

$$

ORZ044-310210-
LOWER COLUMBIA BASIN...OREGON

CITY            SKY/WX      TMP DP  RH  WIND    PRES   REMARKS
HERMISTON       CLOUDY      65  44  46  E6      29.87F
#BOARDMAN SCHOOLN/A         66  40  38  CALM    29.86F
#BOARDMAN 8SW   N/A         67  47  49  N2      29.85F
#ECHO 8SW       N/A         68  43  40  E2      29.85F
#IONE SCHOOL    N/A         68  42  39  N1      29.86F
#IRRIGON 4NW    N/A         68  41  37  E3      N/A
#UMATILLA       N/A         70  42  36  CALM    29.78F
$$

ORZ507-310210-
NORTHERN FOOTHILLS OF THE BLUES

CITY            SKY/WX      TMP DP  RH  WIND    PRES   REMARKS
PENDLETON AIRPT CLOUDY      63  48  58  NW6     29.88F
#ADAMS 3WNW     N/A         63  51  65  NE3     29.88F
#ATHENA         N/A         64  48  56  NE2     29.90F
#CAYUSE         N/A         66  53  63  N2      29.86F
#HELIX SCHOOL   N/A         64  48  56  NE2     29.89F
#HELIX 3N       N/A         62  46  56  NE6     29.88F
#HOLDMAN 5SE    N/A         65  42  43  CALM    29.90F
#HOLDMAN 6E     N/A         64  46  52  S1      29.69F
#M-F FERNDALE   N/A         71  41  34  CALM    29.88F
#M-F GROVE ELEM N/A         67  43  42  CALM    29.87F
#M-FREEWATER 5SEN/A         67  48  50  CALM    29.89F
#PENDLETON DNTN N/A         68  39  35  CALM    29.87F
#PDT AQUATIC CTRN/A         68  43  40  NW2     29.89F
#PENDLETON 5NE  N/A         66  49  54  N2      29.86F
#PDT SUNRIDGE   N/A         65  44  46  NW2     29.89F
#PENDLETON 7NW  N/A         67  47  49  CALM    27.29S
#TUTUILLA       N/A         64  48  56  W3      29.88F
#UMAPINE 2E     N/A         69  48  47  CALM    29.85F
#WESTON SCHOOL  N/A         63  42  46  E1      29.89F

$$

ORZ508-310210-
SOUTHERN FOOTHILLS OF THE BLUES

CITY            SKY/WX      TMP DP  RH  WIND    PRES   REMARKS
LEXINGTON       CLOUDY      66  43  43  N7      29.89F
#AJAX           N/A         61  39  44  N5      29.84F
#CONDON SCHOOL  N/A         62  43  50  CALM    29.88F
#CONDON 5W      N/A         62  38  41  NW3     29.90F
#FOSSIL SCHOOL  N/A         66  34  30  CALM    29.88F
#HEPPNER EOC    N/A         66  45  47  CALM    29.83F
#HEPPNER 4NE    N/A         60  46  60  E2      29.88F
#LEXINGTON 2SE  N/A         68  45  44  N2      29.85F
#MIKKALO        N/A         64  42  45  N2      29.89F
#OLEX 4N        N/A         65  49  56  CALM    29.88F
#RUGGS 5NE      N/A         65  42  43  E3      30.07F
#RUGGS 2SW      N/A         63  42  46  NE2     29.90F

$$

ORZ502-503-310210-
BLUE MOUNTAINS

CITY            SKY/WX      TMP DP  RH  WIND    PRES   REMARKS
MEACHAM         CLOUDY      60  43  53  CALM    29.95F
#BATTLE MTN DOT N/A         56  44  64  N2      N/A
#HEPPNER 15SE   N/A         61  46  58  CALM    29.84F
#LADD CYN SMT   N/A         65  27  24  SE13    N/A
#LADD CREEK ODOTN/A         68  36  31  S6      N/A
#LONG CREEK HS  N/A         63  42  46  CALM    29.87F
#N POWDER DOT   N/A         65  34  31  SE16    N/A
#PIKES PEAK     N/A         57  44  62  E5      27.99S
#TOLLGATE       N/A         57  35  43  SW2     29.95F
#TROY SCHOOL    N/A         76  44  32  CALM    29.70F
#UKIAH          N/A         61  46  58  N7      29.94F
#WESTON 4E      N/A         58  44  60  CALM    29.83F
$$

ORZ505-310210-
JOHN DAY BASIN

CITY            SKY/WX      TMP DP  RH  WIND    PRES   REMARKS
JOHN DAY        CLOUDY      73  34  24  S8      29.90F
#JOHN DAY KJDY  N/A         74  63  69  CALM    29.89R
#DAYVILLE SCHOOLN/A         67  39  36  W7      29.84F
#MITCHELL       N/A         65  45  48  CALM    30.04F
#MONUMENT HS    N/A         67  39  36  NW5     29.88F
#MT. VERNON 5SE N/A         70  35  28  CALM    29.86F
#WINLOCK        N/A         64  45  50  CALM    29.99F
$$

ORZ506-310210-
OCHOCO AND JOHN DAY HIGHLANDS

CITY            SKY/WX      TMP DP  RH  WIND    PRES   REMARKS
#BUCK CREEK DOT N/A         73  73  100 SW21    N/A
#HORSE RIDGE DO N/A         68  23  18  W10     N/A
#KEYES SMT DOT  N/A         59  39  47  CALM    N/A
#PAULINA SCHOOL N/A         76  29  18  SW10    29.87F
#PINE MTN OBS   N/A         57  26  30  W3      N/A
#PRAIRIE CITY   N/A         69  36  30  E1      29.76F
#SENECA         N/A         66  N/A N/A S3      N/A
#SENECA 9NW     N/A         67  37  33  CALM    29.89F
$$

ORZ049-310210-
GRANDE RONDE VALLEY

CITY            SKY/WX      TMP DP  RH  WIND    PRES   REMARKS
LA GRANDE       CLOUDY      70  36  29  S6      29.89F
#COVE           N/A         70  40  34  SE6     29.91F
#COVE SCHOOL    N/A         70  35  28  SE2     29.89F
#ELGIN 3N       N/A         69  36  30  S3      29.89F
#ELGIN 1E       N/A         70  40  34  CALM    N/A
#IMBLER SCHOOL  N/A         66  43  43  SW2     29.87F
#ISLAND CITY 4N N/A         66  49  54  W2      29.89F
#LADD CYN DOT   N/A         69  35  28  S9      N/A
#LA GRANDE ELEM N/A         69  39  33  CALM    29.93F
#UNION 1S       N/A         71  37  29  S6      29.78F
$$

ORZ050-310210-
WALLOWA COUNTY

CITY            SKY/WX      TMP DP  RH  WIND    PRES   REMARKS
#ENTERPRISE HS  N/A         67  39  36  CALM    29.93F
#IMNAHA SCHOOL  N/A         74  32  21  S8      29.88F
#IMNAHA 10S     N/A         68  34  28  SW1     29.91F
#JOSEPH 3N      N/A         65  32  29  CALM    29.98F
#JOSEPH 3W      N/A         60  27  28  N1      29.83F
#LOSTINE        N/A         66  39  37  CALM    29.71F
#MT HOWARD 8000 N/A         44  22  41  S10     30.09F
#PROMISE 1S     N/A         64  40  41  CALM    30.00F
#SHEEP RDG 7000 N/A         50  24  36  CALM    29.94F
#WALLOWA SCHOOL N/A         69  41  36  CALM    30.81F



$$



USA.gov is the U.S. government's official web portal to all federal, state and local government web resources and services.